User: anonymous
Location: Caltech
(34.1382°N, 118.1253°W)
Time: 00:02:59
(UTC-07:00)
Language:

Cosmos 1975 - Orbit

View from above orbital plane
View from above orbital plane
View from above satellite
View from above satellite

Ground track
Ground track

The orbit data is extracted from the following two-line orbital elements,

1 19573U 88093A   14245.45285740  .00001562  00000-0  12111-3 0  2901
2 19573 082.5197 249.3382 0016921 156.7257 203.4737 15.00619947406785
Epoch (UTC): 02 September 2014 10:52:06
Eccentricity: 0.0016921
inclination: 82.5197°
perigee height: 553 km
apogee height: 577 km
right ascension of ascending node: 249.3382°
argument of perigee: 156.7257°
revolutions per day: 15.00619947
mean anomaly at epoch: 203.4737°
orbit number at epoch: 40678

The dashed part of the orbit path shows where the satellite is in the earth's shadow,  

DLR